sat.trackr.live / text

‹ back to catalog

MONOLITH

NORAD 49052 · 2021-068A

PAYLOAD ACTIVE UNKNOWN

§ Identity

Operator
Country
US
Launch date
2021-07-29
Launch site
RLLB
Launch vehicle
Mass (kg)
RCS (m²)

External: N2YO · Heavens-Above · Gunter

§ Orbital elements

Epoch: 2026-09-20T20:45:59.855904Z

Period
95.37 min
Inclination
37.0230°
Eccentricity
0.0003830
Mean motion
15.09951646 rev/d
Perigee alt
533.7 km
Apogee alt
539.0 km
Semi-major
6,914.5 km
B*
2.1947e-4
RAAN
49.7957°
Arg perigee
286.8131°
Mean anomaly
73.2195°
Rev number
28,174

§ Raw data

MONOLITH1 49052U 21068A   26263.86527611  .00003548  00000+0  21947-3 0  99972 49052  37.0230  49.7957 0003830 286.8131  73.2195 15.09951646281746

JSON: /api/v1/satellites/49052 · /tle

For live sub-satellite position, see the globe view (requires WebGL).

§ Visibility from observer

Set your observer location to see the next 7 days of passes ≥ 10°. The values pass through the URL so the page stays shareable.

No JS? Fill the form by hand. The geolocation button needs JavaScript.

§ Radio — SatNOGS DB

ModeDescriptionDownlinkUplink
FM Mode S - Transmitter 2.276 GHz

1 transmitter · refreshed weekly from db.satnogs.org